Retour au catalogue

ATLAS 5 CENTAUR DEB

LostHEO
NORAD 49352·DEBRIS·🇺🇸 United States

Lancé Oct 17, 2018 depuis Cape Canaveral Space Force Station

Loading…

Prochains Passages (prochaines 24 heures)

TLE

PériméSource: Space-Track

Époque: Jul 9, 2026, 01:22 UTC

1 49352U 18079FD  26190.05716732 -.00000121  00000-0  00000-0 0  9992
2 49352  12.5012  77.7056 4578460 230.5451  79.0256  1.68321044 29887

Suivez ATLAS 5 CENTAUR DEB en temps réel avec AllMySat

Download on the App Store